Location: Poughquag
(41.6090°N, 73.6820°W)
Time: 14:19:03
(UTC-04:00)

Vanguard 3 - Pass Details

Date: 04 June 2020
Orbit: 510 x 3261 km, 33.3° (Epoch: 05 July)

Event Time Altitude Azimuth Distance (km) Brightness Sun altitude
Exits shadow 01:59:25 31° 201° (SSW) 4,506 10.3 -24.1°
Maximum altitude 02:07:41 45° 157° (SSE) 3,586 10.0 -23.6°
Drops below altitude 10° 02:20:46 10° 91° (E) 4,658 11.2 -22.8°
Sets 02:24:00 0° 85° (E) 5,330 11.7 -22.5°
